Regional Weather Roundup
Issued by NWS Bismarck, ND

Home | Current Version | Previous Version | Text Only | Print | Product List | Glossary On
Versions: 1 2 3 4 5 6 7 8 9 10 11 12 13 14 15 16 17 18 19 20 21 22 23 24 25 26 27 28 29 30 31 32 33 34 35 36 37 38 39 40 41 42 43 44 45 46 47 48 49 50
000
ASUS43 KBIS 290902
RWRBIS

NWR BROADCAST TEXT
NATIONAL WEATHER SERVICE BISMARCK ND
400 AM CDT FRI JUL 29 2016

NOTE: "FAIR" INDICATES FEW OR NO CLOUDS BELOW 12,000 FEET WITH NO
SIGNIFICANT WEATHER AND/OR OBSTRUCTIONS TO VISIBILITY.


CITY           SKY/WX    TMP DP  RH WIND       PRES   REMARKS
WILLISTON      CLEAR     53  51  93 CALM      30.11F
MINOT          MOCLDY    60  54  80 SW7       30.11F
MINOT AFB      NOT AVBL
BISMARCK       CLOUDY    63  60  90 NE6       30.11F
DICKINSON      PTCLDY    55  55 100 S3        30.12S FOG
GARRISON         N/A     56  55  97 N6        30.12F
HETTINGER ARPT CLOUDY    54  53  97 CALM      30.15F
JAMESTOWN      MOCLDY    61  59  93 NE3       30.11S
CARRINGTON     FAIR      59  57  94 CALM      30.14F
HAZEN          CLOUDY    57  57 100 SE3       30.13F
OAKES            N/A    N/A N/A N/A MISG        N/A
STANLEY        FAIR      52  52 100 CALM      30.15F
$$

CITY           SKY/WX    TMP DP  RH WIND       PRES   REMARKS
GRAND FORKS    CLEAR     53  50  89 W6        30.09S
GRAND FORKS AF NOT AVBL
DEVILS LAKE    CLEAR     58  56  93 SE3       30.13F
FARGO          MOCLDY    62  56  80 N5        30.08F
CAVALIER       FAIR      54  54 100 CALM      30.10S
GRAFTON        FAIR      57  57 100 NW5       30.11F
GWINNER        FAIR      59  57  94 CALM      30.10S
LANGDON        FAIR      50  50 100 CALM      30.13S
ROLLA          FAIR      50  50 100 SW3       30.14S
$$

CITY           SKY/WX    TMP DP  RH WIND       PRES   REMARKS
ABERDEEN       CLOUDY    64  61  90 CALM      30.09S
MOBRIDGE       CLOUDY    69  59  70 CALM      30.07S
BUFFALO          N/A     60  60 100 SE10      30.08F
RAPID CITY     FOG       57  56  96 E6        30.14F VSB 1/2
GLASGOW        CLEAR     58  53  84 E8        30.07F
SIDNEY         CLEAR     54  52  93 CALM      30.11F
WOLF POINT     CLEAR     57  53  86 NE5       30.09F
GLENDIVE       CLEAR     61  58  90 SE3       30.11F
MILES CITY     CLEAR     64  58  80 SE6       30.09F
BAKER          FOG       60  60 100 SE9       30.14F VSB 3/4
$$

CITY           SKY/WX    TMP DP  RH WIND       PRES   REMARKS
BILLINGS       CLEAR     64  50  60 N6        30.10F
GREAT FALLS    CLEAR     64  50  60 SE7       30.08F
$$





USA.gov is the U.S. government's official web portal to all federal, state and local government web resources and services.